,,PressureMeas_1m,,PRMeasQMR101_1,,RHStat155_1m_1,,SRMeasQMS101R_1m,,TAStat155_1m_1,,GenWind_1,,GenWind_1,
2018-06-06, 00:00:06,VALID,918.643,VALID,0.0,VALID,95.715,VALID,0.009,VALID,22.329,VALID,235.0,VALID,0.0,
2018-06-06, 00:01:06,VALID,918.62,VALID,0.0,VALID,95.831,VALID,-0.002,VALID,22.318,VALID,236.0,VALID,0.0,
2018-06-06, 00:02:06,VALID,918.611,VALID,0.0,VALID,95.758,VALID,-0.001,VALID,22.325,VALID,243.0,VALID,0.0,
2018-06-06, 00:03:06,VALID,918.598,VALID,0.0,VALID,95.53,VALID,-0.002,VALID,22.311,VALID,260.0,VALID,0.0,
2018-06-06, 00:04:06,VALID,918.588,VALID,0.0,VALID,95.484,VALID,0.008,VALID,22.312,VALID,265.0,VALID,0.0,
2018-06-06, 00:05:06,VALID,918.58,VALID,0.0,VALID,95.47,VALID,0.006,VALID,22.321,VALID,265.0,VALID,0.0,
2018-06-06, 00:06:06,VALID,918.567,VALID,0.0,VALID,95.375,VALID,0.016,VALID,22.308,VALID,265.0,VALID,0.0,
2018-06-06, 00:07:06,VALID,918.563,VALID,0.0,VALID,95.435,VALID,0.005,VALID,22.305,VALID,262.0,VALID,0.0,
2018-06-06, 00:08:06,VALID,918.562,VALID,0.0,VALID,95.676,VALID,0.021,VALID,22.29,INVALID,360.0,VALID,0.0,
2018-06-06, 00:09:06,VALID,918.569,VALID,0.0,VALID,95.863,VALID,0.019,VALID,22.235,INVALID,360.0,VALID,0.0,
2018-06-06, 00:10:06,VALID,918.576,VALID,0.0,VALID,96.097,VALID,0.002,VALID,22.178,INVALID,360.0,VALID,0.0,
2018-06-06, 00:11:06,VALID,918.578,VALID,0.0,VALID,96.335,VALID,0.004,VALID,22.13,INVALID,360.0,VALID,0.0,
2018-06-06, 00:12:06,VALID,918.556,VALID,0.0,VALID,96.525,VALID,0.015,VALID,22.097,INVALID,360.0,VALID,0.0,
2018-06-06, 00:13:06,VALID,918.55,VALID,0.0,VALID,96.548,VALID,0.013,VALID,22.062,INVALID,360.0,VALID,0.0,
2018-06-06, 00:14:06,VALID,918.533,VALID,0.0,VALID,96.344,VALID,0.006,VALID,22.028,INVALID,360.0,VALID,0.0,
2018-06-06, 00:15:06,VALID,918.5,VALID,0.0,VALID,96.012,VALID,0.013,VALID,21.98,INVALID,360.0,VALID,0.0,
2018-06-06, 00:16:06,VALID,918.478,VALID,0.0,VALID,95.29,VALID,0.017,VALID,21.878,INVALID,360.0,VALID,0.0,
2018-06-06, 00:17:06,VALID,918.454,VALID,0.0,VALID,95.865,VALID,0.02,VALID,21.85,INVALID,360.0,VALID,0.0,
2018-06-06, 00:18:06,VALID,918.432,VALID,0.0,VALID,96.507,VALID,0.009,VALID,21.844,INVALID,360.0,VALID,0.0,
2018-06-06, 00:19:06,VALID,918.425,VALID,0.0,VALID,96.597,VALID,-0.017,VALID,21.785,INVALID,360.0,VALID,0.0,
2018-06-06, 00:20:06,VALID,918.427,VALID,0.0,VALID,96.527,VALID,-0.013,VALID,21.693,INVALID,360.0,VALID,0.0,
2018-06-06, 00:21:06,VALID,918.42,VALID,0.0,VALID,96.599,VALID,-0.017,VALID,21.609,INVALID,360.0,VALID,0.0,
2018-06-06, 00:22:06,VALID,918.427,VALID,0.0,VALID,96.928,VALID,-0.014,VALID,21.585,INVALID,360.0,VALID,0.0,
2018-06-06, 00:23:06,VALID,918.423,VALID,0.0,VALID,96.923,VALID,-0.015,VALID,21.592,INVALID,360.0,VALID,0.0,
2018-06-06, 00:24:06,VALID,918.43,VALID,0.0,VALID,97.23,VALID,-0.013,VALID,21.68,INVALID,360.0,VALID,0.0,
2018-06-06, 00:25:06,VALID,918.45,VALID,0.0,VALID,97.413,VALID,-0.011,VALID,21.757,INVALID,360.0,VALID,0.0,
2018-06-06, 00:26:06,VALID,918.442,VALID,0.0,VALID,97.088,VALID,-0.014,VALID,21.695,INVALID,360.0,VALID,0.0,
2018-06-06, 00:27:06,VALID,918.456,VALID,0.0,VALID,96.009,VALID,-0.021,VALID,21.518,INVALID,360.0,VALID,0.0,
2018-06-06, 00:28:06,VALID,918.472,VALID,0.0,VALID,95.704,VALID,-0.009,VALID,21.416,INVALID,360.0,VALID,0.0,
2018-06-06, 00:29:06,VALID,918.455,VALID,0.0,VALID,96.185,VALID,-0.015,VALID,21.42,INVALID,360.0,VALID,0.0,
2018-06-06, 00:30:06,VALID,918.453,VALID,0.0,VALID,96.66,VALID,-0.004,VALID,21.415,INVALID,360.0,VALID,0.0,
2018-06-06, 00:31:06,VALID,918.436,VALID,0.0,VALID,96.876,VALID,0.006,VALID,21.398,INVALID,360.0,VALID,0.0,
2018-06-06, 00:32:06,VALID,918.413,VALID,0.0,VALID,97.038,VALID,-0.005,VALID,21.399,INVALID,360.0,VALID,0.0,
2018-06-06, 00:33:06,VALID,918.393,VALID,0.0,VALID,97.151,VALID,-0.001,VALID,21.403,INVALID,360.0,VALID,0.0,
2018-06-06, 00:34:06,VALID,918.367,VALID,0.0,VALID,97.349,VALID,-0.0,VALID,21.435,INVALID,360.0,VALID,0.0,
2018-06-06, 00:35:06,VALID,918.362,VALID,0.0,VALID,97.504,VALID,-0.022,VALID,21.457,INVALID,360.0,VALID,0.0,
2018-06-06, 00:36:06,VALID,918.345,VALID,0.0,VALID,97.499,VALID,-0.017,VALID,21.444,INVALID,360.0,VALID,0.0,
2018-06-06, 00:37:06,VALID,918.335,VALID,0.0,VALID,97.396,VALID,-0.014,VALID,21.412,INVALID,360.0,VALID,0.0,
2018-06-06, 00:38:06,VALID,918.318,VALID,0.0,VALID,97.418,VALID,-0.018,VALID,21.43,INVALID,360.0,VALID,0.0,
2018-06-06, 00:39:06,VALID,918.307,VALID,0.0,VALID,97.4,VALID,0.003,VALID,21.381,INVALID,360.0,VALID,0.0,
2018-06-06, 00:40:06,VALID,918.303,VALID,0.0,VALID,96.993,VALID,-0.005,VALID,21.256,INVALID,360.0,VALID,0.0,
2018-06-06, 00:41:06,VALID,918.297,VALID,0.0,VALID,96.886,VALID,-0.01,VALID,21.189,INVALID,360.0,VALID,0.0,
2018-06-06, 00:42:06,VALID,918.292,VALID,0.0,VALID,96.76,VALID,-0.012,VALID,21.12,INVALID,360.0,VALID,0.0,
2018-06-06, 00:43:06,VALID,918.288,VALID,0.0,VALID,96.488,VALID,-0.018,VALID,21.036,INVALID,360.0,VALID,0.0,
2018-06-06, 00:44:06,VALID,918.266,VALID,0.0,VALID,96.657,VALID,0.003,VALID,21.013,INVALID,360.0,VALID,0.0,
2018-06-06, 00:45:06,VALID,918.253,VALID,0.0,VALID,96.874,VALID,-0.016,VALID,21.016,INVALID,360.0,VALID,0.0,
2018-06-06, 00:46:06,VALID,918.258,VALID,0.0,VALID,97.245,VALID,-0.009,VALID,21.05,INVALID,360.0,VALID,0.0,
2018-06-06, 00:47:06,VALID,918.243,VALID,0.0,VALID,97.519,VALID,0.021,VALID,21.066,INVALID,360.0,VALID,0.0,
2018-06-06, 00:48:06,VALID,918.241,VALID,0.0,VALID,97.748,VALID,0.003,VALID,21.1,INVALID,360.0,VALID,0.0,
2018-06-06, 00:49:06,VALID,918.246,VALID,0.0,VALID,97.926,VALID,-0.005,VALID,21.119,INVALID,360.0,VALID,0.0,
2018-06-06, 00:50:06,VALID,918.25,VALID,0.0,VALID,97.937,VALID,0.009,VALID,21.098,INVALID,360.0,VALID,0.0,
2018-06-06, 00:51:06,VALID,918.252,VALID,0.0,VALID,98.011,VALID,0.015,VALID,21.098,INVALID,360.0,VALID,0.0,
2018-06-06, 00:52:06,VALID,918.261,VALID,0.0,VALID,98.067,VALID,0.008,VALID,21.091,INVALID,360.0,VALID,0.0,
2018-06-06, 00:53:06,VALID,918.266,VALID,0.0,VALID,98.143,VALID,0.009,VALID,21.101,INVALID,360.0,VALID,0.0,
2018-06-06, 00:54:06,VALID,918.272,VALID,0.0,VALID,98.188,VALID,0.018,VALID,21.111,INVALID,360.0,VALID,0.0,
2018-06-06, 00:55:06,VALID,918.261,VALID,0.0,VALID,98.24,VALID,-0.014,VALID,21.134,INVALID,360.0,VALID,0.0,
2018-06-06, 00:56:06,VALID,918.272,VALID,0.0,VALID,98.285,VALID,-0.0,VALID,21.149,INVALID,360.0,VALID,0.0,
2018-06-06, 00:57:06,VALID,918.277,VALID,0.0,VALID,98.248,VALID,-0.004,VALID,21.142,INVALID,360.0,VALID,0.0,
2018-06-06, 00:58:06,VALID,918.284,VALID,0.0,VALID,98.302,VALID,-0.015,VALID,21.157,INVALID,360.0,VALID,0.0,
2018-06-06, 00:59:06,VALID,918.273,VALID,0.0,VALID,98.328,VALID,0.001,VALID,21.151,INVALID,360.0,VALID,0.0,
2018-06-06, 01:00:06,VALID,918.293,VALID,0.0,VALID,98.322,VALID,0.006,VALID,21.13,INVALID,360.0,VALID,0.0,
2018-06-06, 01:01:06,VALID,918.297,VALID,0.0,VALID,98.106,VALID,0.001,VALID,21.012,INVALID,360.0,VALID,0.0,
2018-06-06, 01:02:06,VALID,918.311,VALID,0.0,VALID,98.116,VALID,0.02,VALID,20.976,INVALID,360.0,VALID,0.0,
2018-06-06, 01:03:06,VALID,918.314,VALID,0.0,VALID,98.309,VALID,0.021,VALID,21.062,INVALID,360.0,VALID,0.0,
2018-06-06, 01:04:06,VALID,918.315,VALID,0.0,VALID,98.327,VALID,0.007,VALID,21.058,INVALID,360.0,VALID,0.0,
2018-06-06, 01:05:06,VALID,918.313,VALID,0.0,VALID,98.446,VALID,-0.003,VALID,21.127,INVALID,360.0,VALID,0.0,
2018-06-06, 01:06:06,VALID,918.319,VALID,0.0,VALID,98.423,VALID,-0.004,VALID,21.121,INVALID,360.0,VALID,0.0,
2018-06-06, 01:07:06,VALID,918.314,VALID,0.0,VALID,98.272,VALID,0.005,VALID,20.999,INVALID,360.0,VALID,0.0,
2018-06-06, 01:08:06,VALID,918.324,VALID,0.0,VALID,98.182,VALID,-0.007,VALID,20.921,INVALID,360.0,VALID,0.0,
2018-06-06, 01:09:06,VALID,918.322,VALID,0.0,VALID,98.206,VALID,0.001,VALID,20.91,INVALID,360.0,VALID,0.0,
2018-06-06, 01:10:06,VALID,918.333,VALID,0.0,VALID,98.411,VALID,-0.006,VALID,21.021,INVALID,360.0,VALID,0.0,
2018-06-06, 01:11:06,VALID,918.333,VALID,0.0,VALID,98.426,VALID,-0.01,VALID,21.046,INVALID,360.0,VALID,0.0,
2018-06-06, 01:12:06,VALID,918.342,VALID,0.0,VALID,98.32,VALID,-0.008,VALID,20.962,INVALID,360.0,VALID,0.0,
2018-06-06, 01:13:06,VALID,918.356,VALID,0.0,VALID,98.376,VALID,0.012,VALID,20.958,INVALID,360.0,VALID,0.0,
2018-06-06, 01:14:06,VALID,918.37,VALID,0.0,VALID,98.527,VALID,0.003,VALID,21.052,INVALID,360.0,VALID,0.0,
2018-06-06, 01:15:06,VALID,918.367,VALID,0.0,VALID,98.597,VALID,0.01,VALID,21.137,INVALID,360.0,VALID,0.0,
2018-06-06, 01:16:06,VALID,918.362,VALID,0.0,VALID,98.607,VALID,-0.007,VALID,21.197,INVALID,360.0,VALID,0.0,
2018-06-06, 01:17:06,VALID,918.346,VALID,0.0,VALID,98.736,VALID,-0.016,VALID,21.334,INVALID,360.0,VALID,0.0,
2018-06-06, 01:18:06,VALID,918.337,VALID,0.0,VALID,98.678,VALID,-0.007,VALID,21.376,INVALID,360.0,VALID,0.0,
2018-06-06, 01:19:06,VALID,918.331,VALID,0.0,VALID,98.276,VALID,0.009,VALID,21.116,INVALID,360.0,VALID,0.0,
2018-06-06, 01:20:06,VALID,918.318,VALID,0.0,VALID,97.755,VALID,0.011,VALID,20.871,INVALID,360.0,VALID,0.0,
2018-06-06, 01:21:06,VALID,918.304,VALID,0.0,VALID,98.052,VALID,0.02,VALID,21.058,INVALID,360.0,VALID,0.0,
2018-06-06, 01:22:06,VALID,918.303,VALID,0.0,VALID,98.259,VALID,0.01,VALID,21.196,INVALID,360.0,VALID,0.0,
2018-06-06, 01:23:06,VALID,918.3,VALID,0.0,VALID,98.252,VALID,0.02,VALID,21.222,INVALID,360.0,VALID,0.0,
2018-06-06, 01:24:06,VALID,918.281,VALID,0.0,VALID,98.37,VALID,0.004,VALID,21.31,INVALID,360.0,VALID,0.0,
2018-06-06, 01:25:06,VALID,918.267,VALID,0.0,VALID,98.381,VALID,0.016,VALID,21.326,INVALID,360.0,VALID,0.0,
2018-06-06, 01:26:06,VALID,918.253,VALID,0.0,VALID,98.388,VALID,0.013,VALID,21.34,INVALID,360.0,VALID,0.0,
2018-06-06, 01:27:06,VALID,918.241,VALID,0.0,VALID,98.422,VALID,0.009,VALID,21.365,INVALID,360.0,VALID,0.0,
2018-06-06, 01:28:06,VALID,918.226,VALID,0.0,VALID,98.442,VALID,0.028,VALID,21.391,INVALID,360.0,VALID,0.0,
2018-06-06, 01:29:06,VALID,918.224,VALID,0.0,VALID,98.453,VALID,0.025,VALID,21.426,INVALID,360.0,VALID,0.0,
2018-06-06, 01:30:06,VALID,918.202,VALID,0.0,VALID,98.388,VALID,0.015,VALID,21.404,INVALID,360.0,VALID,0.0,
2018-06-06, 01:31:06,VALID,918.182,VALID,0.0,VALID,98.355,VALID,0.024,VALID,21.393,INVALID,360.0,VALID,0.0,
2018-06-06, 01:32:06,VALID,918.178,VALID,0.0,VALID,98.381,VALID,0.021,VALID,21.417,INVALID,360.0,VALID,0.0,
2018-06-06, 01:33:06,VALID,918.172,VALID,0.0,VALID,98.373,VALID,0.02,VALID,21.423,INVALID,360.0,VALID,0.0,
2018-06-06, 01:34:06,VALID,918.158,VALID,0.0,VALID,98.389,VALID,0.001,VALID,21.453,INVALID,360.0,VALID,0.0,
2018-06-06, 01:35:06,VALID,918.166,VALID,0.0,VALID,98.356,VALID,0.004,VALID,21.466,INVALID,360.0,VALID,0.0,
2018-06-06, 01:36:06,VALID,918.164,VALID,0.0,VALID,98.374,VALID,-0.006,VALID,21.505,INVALID,360.0,VALID,0.0,
2018-06-06, 01:37:06,VALID,918.166,VALID,0.0,VALID,98.294,VALID,-0.011,VALID,21.539,INVALID,360.0,VALID,0.0,
2018-06-06, 01:38:06,VALID,918.151,VALID,0.0,VALID,98.15,VALID,-0.0,VALID,21.524,INVALID,360.0,VALID,0.0,
2018-06-06, 01:39:06,VALID,918.139,VALID,0.0,VALID,97.974,VALID,-0.017,VALID,21.517,INVALID,360.0,VALID,0.0,
2018-06-06, 01:40:06,VALID,918.129,VALID,0.0,VALID,97.906,VALID,-0.013,VALID,21.558,INVALID,360.0,VALID,0.0,
2018-06-06, 01:41:06,VALID,918.113,VALID,0.0,VALID,97.932,VALID,-0.018,VALID,21.612,INVALID,360.0,VALID,0.0,
2018-06-06, 01:42:06,VALID,918.097,VALID,0.0,VALID,97.912,VALID,-0.01,VALID,21.652,INVALID,360.0,VALID,0.0,
2018-06-06, 01:43:06,VALID,918.09,VALID,0.0,VALID,97.796,VALID,-0.007,VALID,21.652,INVALID,360.0,VALID,0.0,
2018-06-06, 01:44:06,VALID,918.078,VALID,0.0,VALID,97.601,VALID,-0.014,VALID,21.632,INVALID,360.0,VALID,0.0,
2018-06-06, 01:45:06,VALID,918.059,VALID,0.0,VALID,97.306,VALID,-0.021,VALID,21.587,INVALID,360.0,VALID,0.0,
2018-06-06, 01:46:06,VALID,918.053,VALID,0.0,VALID,97.099,VALID,-0.019,VALID,21.565,INVALID,360.0,VALID,0.0,
2018-06-06, 01:47:06,VALID,918.05,VALID,0.0,VALID,97.0,VALID,-0.004,VALID,21.543,INVALID,360.0,VALID,0.0,
2018-06-06, 01:48:06,VALID,918.044,VALID,0.0,VALID,96.937,VALID,-0.005,VALID,21.513,INVALID,360.0,VALID,0.0,
2018-06-06, 01:49:06,VALID,918.047,VALID,0.0,VALID,96.935,VALID,0.01,VALID,21.485,INVALID,360.0,VALID,0.0,
2018-06-06, 01:50:06,VALID,918.047,VALID,0.0,VALID,97.055,VALID,0.011,VALID,21.477,INVALID,360.0,VALID,0.0,
2018-06-06, 01:51:06,VALID,918.042,VALID,0.0,VALID,97.31,VALID,0.014,VALID,21.486,INVALID,360.0,VALID,0.0,
2018-06-06, 01:52:06,VALID,918.038,VALID,0.0,VALID,97.514,VALID,0.005,VALID,21.494,INVALID,360.0,VALID,0.0,
2018-06-06, 01:53:06,VALID,918.024,VALID,0.0,VALID,97.527,VALID,-0.001,VALID,21.461,INVALID,360.0,VALID,0.0,
2018-06-06, 01:54:06,VALID,918.01,VALID,0.0,VALID,97.56,VALID,0.017,VALID,21.439,INVALID,360.0,VALID,0.0,
2018-06-06, 01:55:06,VALID,917.992,VALID,0.0,VALID,97.59,VALID,0.014,VALID,21.42,INVALID,360.0,VALID,0.0,
2018-06-06, 01:56:06,VALID,917.973,VALID,0.0,VALID,97.575,VALID,0.016,VALID,21.433,INVALID,360.0,VALID,0.0,
2018-06-06, 01:57:06,VALID,917.952,VALID,0.0,VALID,97.525,VALID,0.013,VALID,21.475,INVALID,360.0,VALID,0.0,
2018-06-06, 01:58:06,VALID,917.946,VALID,0.0,VALID,97.45,VALID,0.01,VALID,21.521,INVALID,360.0,VALID,0.0,
2018-06-06, 01:59:06,VALID,917.934,VALID,0.0,VALID,97.401,VALID,0.015,VALID,21.564,INVALID,360.0,VALID,0.0,
2018-06-06, 02:00:06,VALID,917.911,VALID,0.0,VALID,97.337,VALID,-0.001,VALID,21.577,INVALID,360.0,VALID,0.0,
2018-06-06, 02:01:06,VALID,917.897,VALID,0.0,VALID,97.164,VALID,0.004,VALID,21.566,INVALID,360.0,VALID,0.0,
2018-06-06, 02:02:06,VALID,917.887,VALID,0.0,VALID,96.71,VALID,0.009,VALID,21.537,INVALID,360.0,VALID,0.0,
2018-06-06, 02:03:06,VALID,917.876,VALID,0.0,VALID,96.164,VALID,0.014,VALID,21.475,INVALID,360.0,VALID,0.0,
2018-06-06, 02:04:06,VALID,917.857,VALID,0.0,VALID,95.733,VALID,0.0,VALID,21.409,INVALID,360.0,VALID,0.0,
2018-06-06, 02:05:06,VALID,917.844,VALID,0.0,VALID,96.308,VALID,0.001,VALID,21.444,INVALID,360.0,VALID,0.0,
2018-06-06, 02:06:06,VALID,917.819,VALID,0.0,VALID,96.787,VALID,-0.017,VALID,21.498,INVALID,360.0,VALID,0.0,
2018-06-06, 02:07:06,VALID,917.809,VALID,0.0,VALID,97.014,VALID,-0.012,VALID,21.545,INVALID,360.0,VALID,0.0,
2018-06-06, 02:08:06,VALID,917.804,VALID,0.0,VALID,96.896,VALID,-0.012,VALID,21.552,INVALID,360.0,VALID,0.0,
2018-06-06, 02:09:06,VALID,917.784,VALID,0.0,VALID,96.625,VALID,-0.011,VALID,21.536,INVALID,360.0,VALID,0.0,
2018-06-06, 02:10:06,VALID,917.778,VALID,0.0,VALID,96.874,VALID,-0.013,VALID,21.561,INVALID,360.0,VALID,0.0,
2018-06-06, 02:11:06,VALID,917.768,VALID,0.0,VALID,96.95,VALID,-0.005,VALID,21.563,INVALID,360.0,VALID,0.0,
2018-06-06, 02:12:06,VALID,917.761,VALID,0.0,VALID,97.006,VALID,0.008,VALID,21.574,INVALID,360.0,VALID,0.0,
2018-06-06, 02:13:06,VALID,917.754,VALID,0.0,VALID,96.98,VALID,-0.012,VALID,21.585,INVALID,360.0,VALID,0.0,
2018-06-06, 02:14:06,VALID,917.742,VALID,0.0,VALID,96.887,VALID,-0.013,VALID,21.594,INVALID,360.0,VALID,0.0,
2018-06-06, 02:15:06,VALID,917.723,VALID,0.0,VALID,96.89,VALID,-0.013,VALID,21.612,INVALID,360.0,VALID,0.0,
2018-06-06, 02:16:06,VALID,917.708,VALID,0.0,VALID,96.847,VALID,0.002,VALID,21.63,INVALID,360.0,VALID,0.0,
2018-06-06, 02:17:06,VALID,917.69,VALID,0.0,VALID,96.656,VALID,-0.02,VALID,21.641,INVALID,360.0,VALID,0.0,
2018-06-06, 02:18:06,VALID,917.672,VALID,0.0,VALID,96.391,VALID,-0.023,VALID,21.639,INVALID,360.0,VALID,0.0,
2018-06-06, 02:19:06,VALID,917.647,VALID,0.0,VALID,96.242,VALID,0.014,VALID,21.639,INVALID,360.0,VALID,0.0,
2018-06-06, 02:20:06,VALID,917.628,VALID,0.0,VALID,96.166,VALID,0.009,VALID,21.624,INVALID,360.0,VALID,0.0,
2018-06-06, 02:21:06,VALID,917.606,VALID,0.0,VALID,96.15,VALID,0.007,VALID,21.598,INVALID,360.0,VALID,0.0,
2018-06-06, 02:22:06,VALID,917.602,VALID,0.0,VALID,96.305,VALID,-0.0,VALID,21.591,INVALID,360.0,VALID,0.0,
2018-06-06, 02:23:06,VALID,917.588,VALID,0.0,VALID,96.368,VALID,0.009,VALID,21.591,INVALID,360.0,VALID,0.0,
2018-06-06, 02:24:06,VALID,917.593,VALID,0.0,VALID,96.454,VALID,0.001,VALID,21.614,INVALID,360.0,VALID,0.0,
2018-06-06, 02:25:06,VALID,917.599,VALID,0.0,VALID,96.649,VALID,0.011,VALID,21.682,INVALID,360.0,VALID,0.0,
2018-06-06, 02:26:06,VALID,917.595,VALID,0.0,VALID,96.598,VALID,0.016,VALID,21.716,INVALID,360.0,VALID,0.0,
2018-06-06, 02:27:06,VALID,917.588,VALID,0.0,VALID,96.644,VALID,0.009,VALID,21.756,INVALID,360.0,VALID,0.0,
2018-06-06, 02:28:06,VALID,917.593,VALID,0.0,VALID,96.732,VALID,0.007,VALID,21.792,INVALID,360.0,VALID,0.0,
2018-06-06, 02:29:06,VALID,917.575,VALID,0.0,VALID,96.684,VALID,0.009,VALID,21.804,INVALID,360.0,VALID,0.0,
2018-06-06, 02:30:06,VALID,917.565,VALID,0.0,VALID,96.631,VALID,0.008,VALID,21.806,INVALID,360.0,VALID,0.0,
2018-06-06, 02:31:06,VALID,917.56,VALID,0.0,VALID,96.721,VALID,0.016,VALID,21.828,INVALID,360.0,VALID,0.0,
2018-06-06, 02:32:06,VALID,917.568,VALID,0.0,VALID,96.666,VALID,0.01,VALID,21.831,INVALID,360.0,VALID,0.0,
2018-06-06, 02:33:06,VALID,917.561,VALID,0.0,VALID,96.431,VALID,0.015,VALID,21.783,INVALID,360.0,VALID,0.0,
2018-06-06, 02:34:06,VALID,917.545,VALID,0.0,VALID,96.472,VALID,0.017,VALID,21.724,INVALID,360.0,VALID,0.0,
2018-06-06, 02:35:06,VALID,917.547,VALID,0.0,VALID,96.652,VALID,-0.001,VALID,21.678,INVALID,360.0,VALID,0.0,
2018-06-06, 02:36:06,VALID,917.552,VALID,0.0,VALID,96.798,VALID,0.007,VALID,21.647,INVALID,360.0,VALID,0.0,
2018-06-06, 02:37:06,VALID,917.56,VALID,0.0,VALID,96.829,VALID,-0.0,VALID,21.616,INVALID,360.0,VALID,0.0,
2018-06-06, 02:38:06,VALID,917.552,VALID,0.0,VALID,96.951,VALID,-0.002,VALID,21.599,INVALID,360.0,VALID,0.0,
2018-06-06, 02:39:06,VALID,917.551,VALID,0.0,VALID,97.015,VALID,0.009,VALID,21.593,INVALID,360.0,VALID,0.0,
2018-06-06, 02:40:06,VALID,917.537,VALID,0.0,VALID,96.931,VALID,0.023,VALID,21.592,INVALID,360.0,VALID,0.0,
2018-06-06, 02:41:06,VALID,917.528,VALID,0.0,VALID,96.843,VALID,0.001,VALID,21.599,VALID,66.0,VALID,0.0,
2018-06-06, 02:42:06,VALID,917.514,VALID,0.0,VALID,96.765,VALID,-0.005,VALID,21.606,VALID,66.0,VALID,0.0,
2018-06-06, 02:43:06,VALID,917.505,VALID,0.0,VALID,96.634,VALID,-0.003,VALID,21.602,VALID,66.0,VALID,0.0,
2018-06-06, 02:44:06,VALID,917.505,VALID,0.0,VALID,96.524,VALID,-0.006,VALID,21.585,INVALID,360.0,VALID,0.0,
2018-06-06, 02:45:06,VALID,917.509,VALID,0.0,VALID,96.507,VALID,-0.001,VALID,21.552,INVALID,360.0,VALID,0.0,
2018-06-06, 02:46:06,VALID,917.505,VALID,0.0,VALID,96.66,VALID,0.005,VALID,21.526,INVALID,360.0,VALID,0.0,
2018-06-06, 02:47:06,VALID,917.5,VALID,0.0,VALID,96.9,VALID,0.004,VALID,21.513,INVALID,360.0,VALID,0.0,
2018-06-06, 02:48:06,VALID,917.492,VALID,0.0,VALID,97.107,VALID,-0.008,VALID,21.502,INVALID,360.0,VALID,0.0,
2018-06-06, 02:49:06,VALID,917.48,VALID,0.0,VALID,97.274,VALID,-0.009,VALID,21.489,INVALID,360.0,VALID,0.0,
2018-06-06, 02:50:06,VALID,917.466,VALID,0.0,VALID,97.37,VALID,-0.006,VALID,21.468,INVALID,360.0,VALID,0.0,
2018-06-06, 02:51:06,VALID,917.456,VALID,0.0,VALID,97.36,VALID,-0.012,VALID,21.444,INVALID,360.0,VALID,0.0,
2018-06-06, 02:52:06,VALID,917.432,VALID,0.0,VALID,97.416,VALID,-0.032,VALID,21.439,INVALID,360.0,VALID,0.0,
2018-06-06, 02:53:06,VALID,917.427,VALID,0.0,VALID,97.555,VALID,-0.034,VALID,21.446,INVALID,360.0,VALID,0.0,
2018-06-06, 02:54:06,VALID,917.416,VALID,0.0,VALID,97.626,VALID,-0.024,VALID,21.426,INVALID,360.0,VALID,0.0,
2018-06-06, 02:55:06,VALID,917.404,VALID,0.0,VALID,97.741,VALID,-0.012,VALID,21.417,INVALID,360.0,VALID,0.0,
2018-06-06, 02:56:06,VALID,917.415,VALID,0.0,VALID,97.804,VALID,-0.034,VALID,21.408,INVALID,360.0,VALID,0.0,
2018-06-06, 02:57:06,VALID,917.417,VALID,0.0,VALID,97.848,VALID,-0.031,VALID,21.387,INVALID,360.0,VALID,0.0,
2018-06-06, 02:58:06,VALID,917.429,VALID,0.0,VALID,97.88,VALID,-0.036,VALID,21.372,INVALID,360.0,VALID,0.0,
2018-06-06, 02:59:06,VALID,917.43,VALID,0.0,VALID,97.929,VALID,-0.021,VALID,21.361,INVALID,360.0,VALID,0.0,
2018-06-06, 03:00:06,VALID,917.464,VALID,0.0,VALID,97.989,VALID,-0.035,VALID,21.354,INVALID,360.0,VALID,0.0,
2018-06-06, 03:01:06,VALID,917.468,VALID,0.0,VALID,98.047,VALID,-0.012,VALID,21.343,INVALID,360.0,VALID,0.0,
2018-06-06, 03:02:06,VALID,917.474,VALID,0.0,VALID,98.128,VALID,-0.015,VALID,21.334,INVALID,360.0,VALID,0.0,
2018-06-06, 03:03:06,VALID,917.483,VALID,0.0,VALID,98.187,VALID,-0.014,VALID,21.329,INVALID,360.0,VALID,0.0,
2018-06-06, 03:04:06,VALID,917.468,VALID,0.0,VALID,98.235,VALID,-0.001,VALID,21.316,INVALID,360.0,VALID,0.0,
2018-06-06, 03:05:06,VALID,917.466,VALID,0.0,VALID,98.289,VALID,0.0,VALID,21.308,INVALID,360.0,VALID,0.0,
2018-06-06, 03:06:06,VALID,917.465,VALID,0.0,VALID,98.316,VALID,-0.011,VALID,21.285,INVALID,360.0,VALID,0.0,
2018-06-06, 03:07:06,VALID,917.463,VALID,0.0,VALID,98.321,VALID,0.008,VALID,21.252,INVALID,360.0,VALID,0.0,
2018-06-06, 03:08:06,VALID,917.465,VALID,0.0,VALID,98.347,VALID,0.007,VALID,21.219,INVALID,360.0,VALID,0.0,
2018-06-06, 03:09:06,VALID,917.47,VALID,0.0,VALID,98.42,VALID,0.002,VALID,21.223,INVALID,360.0,VALID,0.0,
2018-06-06, 03:10:06,VALID,917.478,VALID,0.0,VALID,98.491,VALID,0.009,VALID,21.267,INVALID,360.0,VALID,0.0,
2018-06-06, 03:11:06,VALID,917.481,VALID,0.0,VALID,98.56,VALID,0.006,VALID,21.306,INVALID,360.0,VALID,0.0,
2018-06-06, 03:12:06,VALID,917.483,VALID,0.0,VALID,98.567,VALID,-0.007,VALID,21.321,INVALID,360.0,VALID,0.0,
2018-06-06, 03:13:06,VALID,917.485,VALID,0.0,VALID,98.597,VALID,-0.001,VALID,21.332,INVALID,360.0,VALID,0.0,
2018-06-06, 03:14:06,VALID,917.482,VALID,0.0,VALID,98.631,VALID,0.003,VALID,21.351,INVALID,360.0,VALID,0.0,
2018-06-06, 03:15:06,VALID,917.462,VALID,0.0,VALID,98.647,VALID,0.004,VALID,21.382,INVALID,360.0,VALID,0.0,
2018-06-06, 03:16:06,VALID,917.454,VALID,0.0,VALID,98.652,VALID,-0.004,VALID,21.38,INVALID,360.0,VALID,0.0,
2018-06-06, 03:17:06,VALID,917.446,VALID,0.0,VALID,98.668,VALID,0.001,VALID,21.389,INVALID,360.0,VALID,0.0,
2018-06-06, 03:18:06,VALID,917.442,VALID,0.0,VALID,98.651,VALID,0.013,VALID,21.37,INVALID,360.0,VALID,0.0,
2018-06-06, 03:19:06,VALID,917.451,VALID,0.0,VALID,98.674,VALID,-0.002,VALID,21.366,INVALID,360.0,VALID,0.0,
2018-06-06, 03:20:06,VALID,917.463,VALID,0.0,VALID,98.671,VALID,-0.028,VALID,21.359,INVALID,360.0,VALID,0.0,
2018-06-06, 03:21:06,VALID,917.467,VALID,0.0,VALID,98.658,VALID,-0.016,VALID,21.353,INVALID,360.0,VALID,0.0,
2018-06-06, 03:22:06,VALID,917.487,VALID,0.0,VALID,98.679,VALID,-0.025,VALID,21.363,INVALID,360.0,VALID,0.0,
2018-06-06, 03:23:06,VALID,917.483,VALID,0.0,VALID,98.678,VALID,-0.022,VALID,21.35,INVALID,360.0,VALID,0.0,
2018-06-06, 03:24:06,VALID,917.475,VALID,0.0,VALID,98.653,VALID,-0.021,VALID,21.319,INVALID,360.0,VALID,0.0,
2018-06-06, 03:25:06,VALID,917.463,VALID,0.0,VALID,98.651,VALID,-0.025,VALID,21.303,INVALID,360.0,VALID,0.0,
2018-06-06, 03:26:06,VALID,917.466,VALID,0.0,VALID,98.637,VALID,-0.024,VALID,21.29,INVALID,360.0,VALID,0.0,
2018-06-06, 03:27:06,VALID,917.455,VALID,0.0,VALID,98.643,VALID,-0.025,VALID,21.277,INVALID,360.0,VALID,0.0,
2018-06-06, 03:28:06,VALID,917.448,VALID,0.0,VALID,98.662,VALID,-0.013,VALID,21.243,INVALID,360.0,VALID,0.0,
2018-06-06, 03:29:06,VALID,917.446,VALID,0.0,VALID,98.614,VALID,-0.029,VALID,21.201,INVALID,360.0,VALID,0.0,
2018-06-06, 03:30:06,VALID,917.441,VALID,0.0,VALID,98.635,VALID,-0.024,VALID,21.207,INVALID,360.0,VALID,0.0,
2018-06-06, 03:31:06,VALID,917.43,VALID,0.0,VALID,98.637,VALID,-0.031,VALID,21.197,INVALID,360.0,VALID,0.0,
2018-06-06, 03:32:06,VALID,917.438,VALID,0.0,VALID,98.617,VALID,-0.021,VALID,21.167,INVALID,360.0,VALID,0.0,
2018-06-06, 03:33:06,VALID,917.432,VALID,0.0,VALID,98.596,VALID,-0.021,VALID,21.141,INVALID,360.0,VALID,0.0,
2018-06-06, 03:34:06,VALID,917.437,VALID,0.0,VALID,98.585,VALID,0.009,VALID,21.128,INVALID,360.0,VALID,0.0,
2018-06-06, 03:35:06,VALID,917.44,VALID,0.0,VALID,98.555,VALID,0.013,VALID,21.122,INVALID,360.0,VALID,0.0,
2018-06-06, 03:36:06,VALID,917.445,VALID,0.0,VALID,98.527,VALID,0.019,VALID,21.129,INVALID,360.0,VALID,0.0,
2018-06-06, 03:37:06,VALID,917.437,VALID,0.0,VALID,98.474,VALID,0.022,VALID,21.116,INVALID,360.0,VALID,0.0,
2018-06-06, 03:38:06,VALID,917.442,VALID,0.0,VALID,98.446,VALID,-0.012,VALID,21.128,INVALID,360.0,VALID,0.0,